Flag for Belarus Weather past 2 weeks in Minsk, Belarus

Now
25 °F

Sunny.


Feels Like: 13 °F
Forecast: 19 / 33 °F
Wind: 13 mph from East

Location: Loshitsa / Minsk International 1

Current Time: Oct 23, 2014 at 11:00:35 AM

Latest Report: Oct 23, 2014 at 10:00 AM


Visibility: 10 mi

Pressure: 30.27 "Hg

Humidity: 74%

Dew point: 18 °F

Location of MinskLocation

Historic Weather in Minsk — Graph

°F

Minsk temperature yesterday

Maximum temperature yesterday: 36 °F (at 7:00 AM)
Minimum temperature yesterday: 32 °F (at 11:00 AM)
Average temperature yesterday: 34 °F

Past Weeks' High & Low Weather Summary

 TemperatureHumidityPressure
High68 °F (Oct 10, 3:00 PM)100% (Oct 10, 8:00 AM)30.30 "Hg (Oct 10, 8:00 AM)
Low23 °F (Oct 23, 7:00 AM)44% (Oct 8, 3:00 PM)29.53 "Hg (Oct 20, 3:00 PM)
Average51 °F79%29.92 "Hg
* Reported Oct 8 9:00 AM — Oct 23 9:30 AM, Minsk, Weather by CustomWeather, © 2014

Note: Actual official high and low records may vary slightly from our data, if they occured in-between our weather recording intervals... More about our weather records

Advertising

Minsk weather history for previous 24 hours

 ConditionsComfort  
Time TempWeatherWind HumidityBarometerVisibility
9:30 AM
Oct 23
23 °FSunny.10 mph80%30.24 "Hg10 mi
9:00 AM23 °FSunny.10 mph80%30.24 "Hg10 mi
8:30 AM23 °FClear.10 mph80%30.21 "Hg10 mi
8:00 AM23 °FClear.10 mph80%30.18 "Hg10 mi
7:30 AM23 °FClear.10 mph80%30.18 "Hg10 mi
7:00 AM23 °FClear.13 mph80%30.18 "Hg10 mi
7:30 PM
Oct 22
32 °FPassing clouds.10 mph75%29.95 "HgN/A
7:00 PM32 °FPassing clouds.10 mph75%29.95 "HgN/A
6:30 PM32 °FMostly cloudy.10 mph80%29.95 "HgN/A
6:00 PM32 °FMostly cloudy.10 mph80%29.95 "HgN/A
5:30 PM34 °FMostly cloudy.10 mph81%29.92 "HgN/A
5:00 PM34 °FMostly cloudy.10 mph81%29.92 "HgN/A
4:30 PM34 °FMostly cloudy.10 mph87%29.89 "HgN/A
4:00 PM34 °FOvercast.10 mph87%29.89 "HgN/A
3:30 PM34 °FOvercast.10 mph87%29.89 "HgN/A
3:00 PM34 °FOvercast.10 mph87%29.89 "HgN/A
2:30 PM34 °FOvercast.10 mph87%29.89 "HgN/A
2:00 PM34 °FOvercast.10 mph87%29.89 "HgN/A
1:30 PM34 °FOvercast.10 mph93%29.89 "HgN/A
1:00 PM34 °FOvercast.10 mph93%29.89 "HgN/A
12:30 PM34 °FOvercast.10 mph93%29.86 "HgN/A
12:00 PM34 °FLight rain. Overcast.10 mph93%29.86 "HgN/A
11:30 AM32 °FLight rain. Overcast.10 mph93%29.86 "HgN/A
11:00 AM32 °FLight rain. Overcast.10 mph93%29.86 "HgN/A
Weather by CustomWeather, © 2014

See weather overviewHow to use our weather pages